Temp
5 5 5 5 5 4 4 4 4 4 4 4 4 3 3 2 2 1 1 0 -1 -1 -1 -1 -2 -1 -1 -1 -1 -1 -2 -3 -3 -3 -3 -3 -3 -3 -3 -3 -3 -3
5 5 5 5 4 4 4 4 4 4 4 4 4 3 3 2 2 1 1 0 -1 -1 -1 -1 -2 -2 -2 -2 -1 -2 -2 -3 -3 -3 -3 -3 -3 -3 -3 -4 -4 -4
5 5 5 5 4 4 4 4 4 4 3 3 4 3 2 2 2 1 1 0 -1 -1 -1 -2 -2 -2 -2 -2 -2 -2 -3 -3 -3 -3 -3 -3 -3 -3 -3 -4 -4 -4
5 5 5 4 4 4 4 4 4 4 3 3 3 3 2 2 2 1 1 0 -1 -1 -1 -2 -2 -2 -2 -2 -2 -2 -2 -3 -3 -3 -3 -3 -3 -3 -3 -3 -3 -4
5 5 4 4 4 4 4 3 3 3 3 3 3 3 2 2 2 1 1 0 -0 -1 -1 -2 -2 -2 -2 -2 -2 -2 -2 -2 -3 -3 -3 -3 -3 -4 -4 -4 -4 -4
5 4 4 4 4 4 4 3 3 3 3 3 3 3 3 2 2 1 1 0 -0 -1 -1 -1 -2 -2 -2 -2 -2 -2 -2 -2 -3 -3 -2 -3 -3 -4 -4 -4 -4 -4
5 4 4 4 4 4 3 3 3 3 3 3 3 3 3 2 2 1 1 1 -0 -1 -1 -1 -2 -2 -2 -2 -2 -2 -2 -2 -3 -3 -3 -3 -3 -4 -4 -4 -4 -4
4 4 4 4 4 3 3 3 3 3 3 3 3 3 3 2 2 2 1 1 0 -1 -1 -1 -2 -2 -3 -3 -2 -2 -2 -2 -3 -3 -3 -3 -3 -3 -4 -4 -4 -4
4 4 4 4 3 3 3 3 3 3 3 3 3 3 3 3 2 2 2 1 0 -0 -1 -1 -1 -2 -3 -3 -3 -3 -2 -3 -3 -3 -3 -3 -3 -3 -4 -4 -4 -4
4 4 4 4 3 3 3 3 3 3 3 3 3 3 3 3 3 2 2 1 1 0 -0 -1 -1 -2 -3 -3 -4 -3 -3 -3 -3 -4 -3 -3 -3 -3 -4 -4 -4 -4
4 4 4 3 3 3 3 3 3 3 3 3 3 3 3 3 3 2 2 2 1 1 -0 -1 -1 -1 -2 -3 -4 -4 -3 -3 -4 -4 -4 -4 -4 -4 -4 -4 -4 -4
4 4 4 3 3 3 3 3 3 3 3 3 3 3 3 3 3 2 2 2 1 1 0 -0 -1 -1 -1 -2 -3 -4 -4 -4 -5 -5 -4 -4 -4 -4 -4 -4 -4 -4
4 4 4 3 3 3 3 3 3 3 3 3 2 3 3 3 3 3 2 2 2 1 1 0 -0 -1 -1 -1 -2 -3 -4 -5 -5 -5 -5 -5 -4 -4 -4 -4 -4 -5
4 4 3 3 3 3 3 3 3 3 3 2 2 2 3 3 3 3 3 3 2 2 1 1 0 -0 -1 -1 -1 -2 -3 -4 -4 -5 -5 -5 -5 -5 -5 -4 -5 -5
4 3 3 3 3 3 3 3 3 3 3 2 2 2 2 3 3 3 3 3 3 2 2 1 1 -0 -1 -1 -1 -1 -2 -3 -3 -4 -4 -4 -4 -5 -5 -5 -4 -4
3 3 3 3 3 3 2 2 2 2 2 2 2 2 2 2 2 3 3 3 3 3 2 2 1 0 -0 -0 -0 -1 -1 -2 -2 -3 -3 -3 -3 -4 -4 -4 -4 -4
3 3 3 3 3 2 2 2 2 2 2 2 2 2 2 2 2 2 2 2 3 3 3 2 1 1 0 -0 0 0 -0 -1 -2 -2 -2 -2 -3 -3 -3 -3 -4 -4
3 3 3 3 2 2 2 2 2 2 2 2 2 2 2 2 2 2 2 2 2 2 2 2 2 1 1 0 0 0 0 -0 -1 -1 -2 -2 -2 -3 -3 -3 -3 -4
3 3 3 2 2 2 2 2 2 2 2 2 2 2 2 2 2 2 2 2 2 2 2 2 2 2 2 1 1 1 1 0 -0 -1 -1 -1 -2 -2 -3 -3 -3 -3
3 3 3 2 2 2 2 2 2 2 2 2 2 2 2 1 2 2 2 2 2 2 2 2 2 2 2 2 2 1 1 1 1 0 -0 -1 -1 -2 -2 -3 -3 -3
3 3 3 2 2 2 2 2 1 1 1 1 1 1 1 1 1 1 2 2 2 2 2 2 2 2 2 2 2 1 1 1 1 1 1 0 -0 -1 -2 -2 -3 -3
3 3 2 2 2 2 2 2 1 1 1 1 1 1 1 1 1 1 1 2 2 2 2 2 2 1 1 2 2 1 1 1 1 1 1 1 0 -0 -1 -2 -2 -3
3 3 2 2 2 2 2 2 1 1 1 1 1 1 1 1 1 1 1 1 1 2 2 2 2 1 1 1 1 1 1 1 1 1 1 1 0 -0 -1 -1 -2 -2
3 3 2 2 2 2 2 1 1 1 1 1 1 1 1 1 1 1 1 1 1 1 1 1 1 1 1 1 1 1 1 1 1 0 1 0 0 -0 -0 -1 -1 -2
3 3 2 2 2 2 2 1 1 1 1 1 1 1 1 1 1 1 1 1 1 1 1 1 1 1 1 1 1 1 1 0 0 0 0 0 -0 -0 -0 -1 -1 -1
3 2 2 2 2 2 1 1 1 1 1 1 1 1 1 1 1 1 1 1 1 1 1 1 1 1 1 1 1 1 0 0 0 -0 -0 -0 -0 -0 -0 -1 -1 -1
Height
3116 3114 3112 3110 3107 3104 3101 3098 3096 3093 3090 3088 3086 3083 3080 3077 3075 3072 3070 3067 3065 3063 3061 3058 3056 3053 3050 3047 3042 3038 3033 3030 3027 3024 3022 3020 3018 3016 3014 3011 3008 3006
3117 3115 3113 3110 3107 3104 3102 3099 3096 3094 3091 3088 3086 3084 3081 3078 3076 3074 3071 3069 3066 3064 3062 3060 3058 3056 3053 3050 3046 3042 3038 3035 3032 3029 3027 3023 3021 3019 3016 3013 3011 3008
3117 3115 3113 3111 3108 3105 3102 3100 3097 3094 3092 3089 3086 3084 3082 3079 3077 3075 3073 3070 3068 3066 3064 3062 3060 3058 3055 3053 3049 3046 3042 3039 3036 3034 3032 3028 3025 3023 3020 3018 3015 3013
3118 3116 3114 3111 3108 3106 3103 3100 3098 3095 3092 3090 3087 3085 3083 3080 3078 3076 3074 3072 3069 3067 3065 3063 3061 3059 3057 3055 3052 3049 3046 3043 3040 3039 3036 3033 3030 3028 3025 3023 3020 3018
3118 3116 3114 3112 3109 3106 3103 3101 3098 3096 3093 3091 3088 3086 3084 3081 3079 3077 3076 3073 3071 3068 3067 3065 3063 3061 3059 3057 3055 3052 3050 3047 3045 3043 3040 3037 3035 3032 3030 3028 3025 3022
3118 3116 3114 3112 3109 3107 3104 3102 3099 3097 3094 3092 3089 3087 3085 3082 3080 3079 3077 3075 3072 3070 3068 3066 3065 3063 3061 3059 3058 3055 3052 3050 3048 3046 3044 3040 3038 3037 3035 3033 3030 3028
3119 3117 3115 3112 3110 3107 3105 3102 3100 3097 3095 3092 3090 3088 3086 3083 3082 3080 3078 3076 3074 3072 3070 3068 3066 3064 3063 3061 3059 3057 3055 3053 3051 3049 3047 3044 3042 3041 3039 3037 3035 3033
3119 3117 3115 3113 3110 3108 3105 3103 3100 3098 3096 3093 3091 3089 3087 3084 3083 3081 3079 3077 3075 3073 3071 3069 3067 3066 3064 3063 3061 3059 3057 3055 3053 3052 3050 3048 3046 3044 3042 3040 3038 3037
3119 3118 3115 3113 3111 3108 3106 3104 3101 3099 3096 3094 3092 3090 3088 3085 3084 3082 3080 3078 3077 3075 3073 3071 3069 3067 3066 3065 3063 3061 3059 3057 3056 3054 3052 3050 3048 3046 3045 3044 3042 3041
3120 3118 3116 3114 3111 3109 3107 3104 3102 3100 3097 3095 3093 3091 3089 3086 3084 3083 3081 3079 3078 3076 3074 3072 3070 3068 3067 3066 3064 3063 3061 3059 3058 3056 3055 3053 3051 3049 3047 3046 3045 3044
3120 3118 3117 3114 3112 3110 3107 3105 3103 3101 3098 3096 3094 3092 3090 3087 3085 3084 3082 3080 3079 3077 3075 3074 3072 3070 3068 3067 3065 3064 3062 3061 3059 3058 3057 3055 3053 3052 3050 3049 3047 3046
3120 3119 3117 3115 3113 3110 3108 3106 3104 3101 3099 3097 3095 3092 3090 3088 3086 3084 3083 3081 3080 3078 3076 3075 3073 3071 3070 3068 3066 3065 3063 3062 3061 3060 3058 3057 3056 3054 3053 3051 3050 3048
3121 3119 3118 3116 3113 3111 3109 3106 3104 3102 3100 3098 3096 3093 3091 3090 3088 3086 3084 3082 3081 3079 3077 3076 3074 3073 3071 3070 3068 3066 3065 3063 3062 3061 3060 3059 3058 3056 3055 3053 3052 3050
3121 3120 3118 3116 3114 3112 3109 3107 3105 3103 3101 3098 3096 3094 3092 3091 3089 3087 3085 3083 3082 3080 3078 3077 3075 3074 3072 3071 3069 3068 3066 3065 3064 3062 3061 3060 3059 3058 3056 3055 3053 3052
3122 3120 3118 3116 3114 3112 3110 3108 3106 3104 3102 3099 3097 3095 3093 3092 3090 3088 3086 3084 3083 3081 3079 3078 3076 3074 3074 3072 3071 3069 3067 3066 3065 3064 3062 3061 3060 3059 3057 3056 3055 3053
3122 3120 3119 3117 3115 3113 3110 3108 3106 3104 3102 3100 3098 3096 3094 3092 3090 3088 3087 3085 3083 3082 3080 3078 3077 3075 3075 3074 3072 3070 3069 3067 3066 3065 3063 3062 3061 3060 3058 3057 3055 3054
3122 3121 3119 3117 3115 3113 3111 3109 3107 3105 3103 3101 3099 3097 3095 3093 3091 3089 3088 3086 3084 3083 3081 3079 3078 3077 3075 3074 3073 3071 3070 3068 3067 3066 3064 3063 3062 3061 3059 3058 3056 3055
3122 3121 3119 3118 3116 3114 3112 3110 3108 3106 3104 3102 3100 3098 3096 3094 3092 3090 3089 3087 3086 3084 3082 3081 3079 3078 3076 3075 3073 3072 3070 3069 3067 3066 3065 3064 3063 3061 3060 3059 3057 3056
3123 3121 3120 3118 3116 3114 3112 3110 3108 3106 3105 3103 3101 3099 3097 3095 3093 3091 3090 3088 3087 3085 3083 3082 3080 3079 3077 3076 3074 3073 3071 3070 3068 3067 3065 3064 3063 3062 3061 3060 3058 3057
3123 3122 3120 3118 3116 3115 3113 3111 3109 3107 3106 3104 3102 3100 3098 3096 3094 3092 3090 3089 3087 3086 3084 3082 3081 3080 3078 3076 3075 3073 3072 3070 3069 3068 3066 3065 3064 3063 3061 3060 3059 3058
3124 3122 3120 3119 3117 3115 3113 3111 3110 3108 3107 3105 3102 3100 3098 3097 3095 3093 3091 3090 3088 3086 3085 3083 3082 3080 3079 3077 3075 3074 3073 3071 3070 3068 3067 3066 3064 3063 3062 3061 3060 3059
3124 3122 3121 3119 3117 3116 3114 3112 3111 3109 3107 3106 3104 3102 3100 3097 3096 3094 3092 3091 3089 3087 3086 3084 3082 3081 3080 3078 3076 3075 3073 3072 3070 3069 3068 3067 3065 3064 3063 3062 3060 3059
3124 3123 3121 3120 3118 3116 3114 3113 3111 3110 3108 3107 3105 3103 3101 3099 3097 3095 3093 3091 3090 3088 3086 3085 3083 3082 3080 3079 3077 3076 3074 3073 3071 3070 3069 3068 3066 3065 3064 3063 3062 3060
3124 3123 3121 3120 3119 3117 3115 3113 3112 3110 3109 3107 3106 3104 3102 3100 3098 3096 3094 3093 3091 3089 3087 3086 3084 3082 3081 3079 3078 3076 3075 3073 3072 3071 3070 3069 3067 3066 3065 3064 3063 3061
3124 3123 3122 3120 3119 3118 3116 3114 3113 3111 3109 3108 3106 3105 3103 3101 3099 3097 3096 3094 3092 3090 3088 3087 3085 3083 3082 3080 3079 3077 3076 3075 3073 3072 3071 3070 3069 3067 3066 3065 3064 3062
3124 3123 3122 3121 3120 3118 3116 3115 3113 3112 3110 3108 3107 3105 3103 3102 3100 3098 3097 3095 3093 3091 3089 3088 3086 3084 3083 3081 3080 3078 3077 3076 3074 3073 3072 3071 3070 3068 3067 3066 3064 3063
Wind_Speed
21 22 22 22 22 23 24 24 24 24 24 24 24 23 22 21 22 22 22 23 24 24 26 29 29 30 33 35 38 39 40 40 39 35 31 29 27 24 22 20 17 15
20 21 21 22 22 23 23 23 23 23 24 24 24 23 22 21 21 21 20 21 22 22 25 27 27 28 30 33 36 39 40 41 42 41 38 36 34 32 32 32 29 24
20 21 21 21 21 22 23 23 23 23 23 24 24 23 21 20 20 20 19 20 21 21 23 26 26 25 27 30 33 36 38 39 39 40 41 41 40 40 40 40 39 37
19 20 20 20 21 22 22 22 23 23 23 24 24 23 21 19 19 19 18 19 20 20 21 24 25 24 25 26 29 32 34 35 35 35 36 39 40 40 40 40 40 41
19 19 20 20 21 21 22 22 22 22 22 23 24 23 21 19 18 17 17 18 19 18 19 21 23 24 23 24 25 27 29 30 31 30 32 34 36 38 38 38 38 39
18 19 19 20 21 21 21 21 21 22 22 23 23 23 21 18 17 16 16 17 18 17 17 19 21 22 23 24 24 24 25 26 26 27 28 30 32 33 34 35 36 36
17 18 18 19 20 21 21 21 21 22 22 22 23 23 21 19 17 16 15 16 17 16 16 17 19 20 21 22 24 24 24 24 24 24 25 27 28 29 30 31 32 34
17 17 18 19 20 21 21 21 22 22 22 22 22 22 21 19 17 16 15 15 16 15 15 16 17 18 19 20 21 23 24 25 25 24 25 26 27 28 30 30 30 31
16 16 17 18 19 20 20 21 21 22 22 22 22 22 21 20 17 16 15 15 15 15 15 15 15 15 16 17 17 19 21 23 25 26 26 26 26 28 29 29 28 28
15 16 17 18 19 20 20 20 21 21 21 21 22 22 21 20 18 16 15 14 14 14 14 14 13 13 14 14 15 17 19 20 23 25 26 26 27 27 27 27 26 26
15 15 16 17 18 19 19 20 20 21 21 21 22 22 21 20 19 17 15 13 13 13 14 13 12 12 12 12 13 15 17 18 20 21 23 24 25 26 26 26 25 25
14 15 16 16 18 19 19 19 19 20 21 21 21 22 21 20 19 17 15 13 12 12 13 13 12 11 11 11 11 12 14 16 17 17 18 19 21 22 22 23 23 22
14 14 15 16 17 18 18 18 19 19 20 21 21 21 21 20 19 18 15 13 12 11 12 12 12 11 10 10 10 10 11 12 13 13 13 14 15 16 17 18 19 18
13 14 14 15 17 18 18 18 18 19 20 21 21 21 21 20 19 18 16 15 13 12 12 12 12 11 10 9 9 9 9 9 9 10 11 11 12 13 13 14 15 15
13 13 14 15 17 17 17 17 17 18 19 20 21 20 20 20 19 18 17 16 14 12 12 12 12 11 10 9 9 9 8 8 8 8 9 10 10 11 12 13 14 15
12 13 13 15 17 17 17 17 17 18 19 20 20 20 20 20 19 19 18 16 15 13 13 12 12 11 10 9 9 9 8 8 8 8 8 9 10 10 11 12 13 14
12 12 13 14 16 16 16 16 16 17 18 19 20 20 20 20 20 19 18 17 15 14 13 13 12 11 10 10 10 10 9 8 7 7 8 9 10 10 11 12 13 13
11 12 12 14 15 15 15 16 16 17 18 19 19 19 19 20 19 19 18 17 16 14 13 12 12 11 11 11 11 11 11 10 9 8 8 9 9 10 10 12 13 12
10 11 12 13 14 15 15 15 16 17 18 19 19 19 19 19 19 18 18 17 16 15 14 13 12 11 11 11 11 11 12 12 11 10 9 9 9 9 9 10 11 11
9 10 11 13 14 14 15 15 15 16 17 18 18 19 19 18 18 18 18 18 17 16 15 14 13 12 11 11 11 11 12 13 12 11 11 11 10 10 9 9 10 10
8 9 10 12 13 14 14 15 15 16 16 17 18 18 18 18 18 18 18 18 17 17 16 15 14 13 12 11 11 11 12 13 13 13 13 12 12 12 11 10 10 10
7 8 9 11 12 13 14 14 14 15 15 15 16 17 17 17 18 18 18 17 17 17 17 16 15 14 13 12 11 12 12 13 13 13 13 13 13 12 12 11 10 10
6 7 8 10 11 13 14 14 14 14 14 14 15 15 16 16 17 17 18 17 17 17 17 16 16 16 14 13 12 12 13 13 13 13 13 13 13 12 12 11 11 10
6 7 8 9 11 12 14 14 14 14 14 14 14 15 15 15 16 16 17 17 17 17 17 17 17 16 15 15 14 13 14 14 14 13 12 13 13 13 13 12 12 11
5 6 7 8 10 12 13 13 13 13 13 13 14 14 15 15 16 16 16 16 16 16 16 17 17 16 16 15 15 14 15 15 15 14 13 13 13 13 13 13 13 13
5 6 7 8 9 11 13 13 13 12 12 13 13 14 15 16 16 16 16 16 16 16 16 17 16 16 16 16 16 15 15 16 16 16 15 14 14 14 14 14 13 13
Wind_Direction
13 13 14 13 12 12 11 11 14 16 17 18 16 15 17 18 22 25 23 27 30 29 32 33 31 31 30 30 32 36 41 44 45 44 40 39 40 39 38 36 33 34
13 14 14 14 12 12 11 12 15 18 18 18 16 16 19 20 23 26 26 30 31 29 33 36 34 34 33 33 35 40 48 51 52 51 50 51 52 54 53 53 52 54
14 14 14 13 12 12 12 12 16 19 19 18 16 17 20 21 24 26 28 32 32 29 33 37 36 34 35 36 38 43 50 55 55 54 55 56 57 58 59 60 61 63
14 15 14 13 13 13 12 13 16 19 20 19 17 17 20 22 25 27 29 34 34 30 32 37 37 34 34 36 39 44 50 54 55 55 56 58 59 59 60 60 62 64
15 15 13 12 12 13 13 13 17 20 22 21 18 17 20 22 26 27 28 35 37 32 32 37 39 36 34 35 38 43 48 51 52 53 55 58 59 60 60 60 60 62
16 14 12 12 12 14 13 14 18 21 23 24 20 18 19 22 26 26 28 36 40 35 32 36 40 39 38 38 39 42 46 49 49 49 51 55 57 58 58 59 59 60
15 14 11 11 12 13 13 14 19 22 23 25 22 18 20 22 25 26 27 36 42 38 33 35 39 41 40 39 39 43 46 48 48 47 49 53 56 57 58 59 58 58
15 13 11 11 13 13 13 15 19 23 24 26 23 20 21 22 25 26 26 34 43 42 36 35 36 40 42 40 37 40 46 49 49 47 48 52 55 58 61 60 59 58
14 13 10 12 14 13 14 17 21 24 25 26 25 22 22 23 24 26 26 31 42 45 40 36 35 37 40 40 38 38 42 48 50 48 48 50 53 57 61 60 58 57
13 12 10 12 14 13 14 19 22 25 25 25 25 24 23 23 24 25 26 28 38 46 45 38 35 35 35 36 39 38 39 46 50 48 47 48 51 54 57 58 58 57
12 11 10 12 14 14 15 19 23 26 26 25 25 24 23 23 23 25 26 28 33 43 49 44 37 36 33 31 37 38 36 40 49 49 46 45 46 49 52 52 52 52
12 9 9 13 15 15 16 19 23 25 25 25 24 24 23 23 23 24 26 28 30 38 48 48 42 38 33 29 35 40 36 36 45 50 48 46 42 40 43 45 44 44
11 8 8 13 16 16 17 19 23 25 25 24 23 23 23 23 23 24 25 27 29 34 44 48 46 40 34 31 36 41 40 36 39 44 46 47 46 39 35 38 42 41
9 7 8 13 16 17 17 19 23 25 24 23 22 22 22 22 23 23 23 25 27 30 38 45 48 43 34 30 34 41 43 38 34 34 33 35 41 41 33 31 37 38
7 7 8 14 16 16 17 20 22 24 24 23 21 21 21 22 23 23 22 23 25 28 33 40 47 47 39 31 33 39 44 41 33 29 26 22 22 26 27 27 30 31
5 6 10 15 16 15 17 20 22 24 25 23 20 19 20 22 23 23 21 21 22 24 28 35 42 47 46 39 37 41 44 44 37 27 23 20 14 13 16 19 24 28
2 6 11 16 16 14 16 19 21 24 25 23 20 19 20 22 22 22 21 20 20 23 26 31 37 43 47 45 42 42 45 47 43 31 23 19 12 8 8 10 17 24
2 6 12 16 15 14 16 19 21 23 24 22 19 18 19 21 21 21 21 19 19 23 26 30 33 36 42 46 42 40 41 45 46 40 32 24 14 8 7 8 13 16
2 6 12 15 15 14 17 20 22 24 23 20 18 18 20 21 20 20 21 19 19 21 25 30 32 31 35 42 43 39 36 37 39 39 36 32 23 16 15 14 14 13
3 7 13 15 14 15 18 21 24 25 23 20 18 17 19 20 20 20 19 19 19 20 22 27 30 29 28 35 40 38 34 33 32 31 31 32 27 21 20 21 20 18
3 8 14 16 15 16 19 21 24 26 25 21 19 17 16 17 19 20 19 18 18 19 21 24 27 27 25 28 35 36 33 32 30 26 25 27 27 22 19 19 20 20
5 10 15 17 16 17 19 21 24 26 26 24 22 19 17 17 17 18 19 19 18 19 21 23 25 25 23 23 30 34 34 33 31 27 23 24 25 23 20 18 19 20
7 11 15 18 17 18 20 22 23 25 25 25 25 24 22 19 18 17 18 19 20 20 21 23 25 25 24 23 26 31 34 33 31 27 24 25 26 24 22 20 20 21
10 12 16 18 17 18 21 22 21 22 23 25 26 27 25 23 22 20 18 18 20 21 23 25 27 26 26 25 26 30 33 33 31 27 24 26 26 26 25 22 20 22
14 15 17 18 17 20 23 23 21 21 22 24 26 27 27 27 26 24 22 19 19 20 23 26 27 28 29 29 29 32 35 34 32 28 26 27 28 30 29 24 20 20
21 19 18 17 17 20 23 23 22 22 23 25 26 26 27 28 27 25 24 21 19 20 23 24 26 27 29 31 32 34 37 36 34 30 26 25 28 32 33 30 24 21